WATER LEVELS

Elbe

Guaranteed water level and forecast    Ústí nad Labem-Střekov

Guaranteed water level
170 cm
on 20.06.2024 more information
Forecast
170 cm
on 21.06.2024 06:00
Tendency
steady state
on 21.06.2024 tendency methodology
Assumption
165 cm
on 22.06.2024 06:00
(Source data ČHMÚ a Povodí Labe)

Ústí nad Labem

Date and time (UTC) H (cm) Q (m³/s)
20. 6. 2024 13:00 192 176
20. 6. 2024 12:00 191 174
20. 6. 2024 11:00 193 178
20. 6. 2024 10:00 192 176
20. 6. 2024 09:00 187 167
20. 6. 2024 08:00 166 132
20. 6. 2024 07:00 167 134
20. 6. 2024 06:00 168 135
20. 6. 2024 05:00 174 145
20. 6. 2024 04:00 178 151
20. 6. 2024 03:00 178 151
20. 6. 2024 02:00 178 151
20. 6. 2024 01:00 179 153

H - water level, Q - discharge
more information

Mělník

Date and time (UTC) H (cm) Q (m³/s)
20. 6. 2024 13:00 264 -
20. 6. 2024 12:00 269 -
20. 6. 2024 11:00 267 -
20. 6. 2024 10:00 265 -
20. 6. 2024 09:00 264 -
20. 6. 2024 08:00 263 -
20. 6. 2024 07:00 260 -
20. 6. 2024 06:00 266 105
20. 6. 2024 05:00 271 -
20. 6. 2024 04:00 266 -
20. 6. 2024 03:00 263 -
20. 6. 2024 02:00 261 -
20. 6. 2024 01:00 267 -

H - water level, Q - discharge
more information

Kostelec nad Labem

Date and time (UTC) H (cm) Q (m³/s)
20. 6. 2024 13:00 396 -
20. 6. 2024 12:00 394 11
20. 6. 2024 11:00 399 18
20. 6. 2024 10:00 395 23
20. 6. 2024 09:00 397 20
20. 6. 2024 08:00 396 14
20. 6. 2024 07:00 397 15
20. 6. 2024 06:00 396 15
20. 6. 2024 05:00 395 15
20. 6. 2024 04:00 400 19
20. 6. 2024 03:00 399 31
20. 6. 2024 02:00 396 21
20. 6. 2024 01:00 397 16

H - water level, Q - discharge
more information

Přelouč

Date and time (UTC) H (cm) Q (m³/s)
20. 6. 2024 13:00 39 15.2
20. 6. 2024 12:00 37 14
20. 6. 2024 11:00 36 14
20. 6. 2024 10:00 42 17
20. 6. 2024 09:00 49 21
20. 6. 2024 08:00 44 18
20. 6. 2024 07:00 29 11
20. 6. 2024 06:00 27 10
20. 6. 2024 05:00 35 13
20. 6. 2024 04:00 40 16
20. 6. 2024 03:00 40 16
20. 6. 2024 02:00 38 15
20. 6. 2024 01:00 37 14

H - water level, Q - discharge
more information


Vltava

Praha-Chuchle

Date and time (UTC) H (cm) Q (m³/s)
20. 6. 2024 13:20 63 82.3
20. 6. 2024 13:00 62 79
20. 6. 2024 12:00 62 79
20. 6. 2024 11:00 60 72
20. 6. 2024 10:00 60 72
20. 6. 2024 09:00 61 76
20. 6. 2024 08:00 62 79
20. 6. 2024 07:00 63 82
20. 6. 2024 06:00 63 82
20. 6. 2024 05:00 63 82
20. 6. 2024 04:00 63 82
20. 6. 2024 03:00 63 82
20. 6. 2024 02:00 63 82
20. 6. 2024 01:00 63 82

H - water level, Q - discharge
more information

VD Orlík

Date and time (UTC) H (m n. m.) Q (m³/s)
20. 6. 2024 13:20 346.68 0
20. 6. 2024 13:00 346.67 0
20. 6. 2024 12:00 346.66 0
20. 6. 2024 11:00 346.66 0
20. 6. 2024 10:00 346.64 0
20. 6. 2024 09:00 346.65 0
20. 6. 2024 08:00 346.64 125
20. 6. 2024 07:00 346.64 54
20. 6. 2024 06:00 346.65 0
20. 6. 2024 05:00 346.65 0
20. 6. 2024 04:00 346.63 0
20. 6. 2024 03:00 346.65 0
20. 6. 2024 02:00 346.62 0
20. 6. 2024 01:00 346.62 0

H - water level, Q - outflow

VD Kořensko

Date and time (UTC) H (m n. m.) Q (m³/s)
20. 6. 2024 13:20 352.51 18.8
20. 6. 2024 13:00 352.51 -
20. 6. 2024 12:00 352.52 -
20. 6. 2024 11:00 352.53 -
20. 6. 2024 10:00 352.54 -
20. 6. 2024 09:00 352.54 -
20. 6. 2024 08:00 352.54 21
20. 6. 2024 07:00 352.51 21
20. 6. 2024 06:00 352.49 -
20. 6. 2024 05:00 352.49 14
20. 6. 2024 04:00 352.48 14
20. 6. 2024 03:00 352.46 -
20. 6. 2024 02:00 352.47 -
20. 6. 2024 01:00 352.48 -

H - water level, Q - outflow

České Budějovice

Date and time (UTC) H (cm) Q (m³/s)
20. 6. 2024 13:00 104 21.1
20. 6. 2024 12:00 102 24
20. 6. 2024 11:00 103 24
20. 6. 2024 10:00 102 24
20. 6. 2024 09:00 104 25
20. 6. 2024 08:00 103 24
20. 6. 2024 07:00 103 23
20. 6. 2024 06:00 103 24
20. 6. 2024 05:00 103 23
20. 6. 2024 04:00 103 23
20. 6. 2024 03:00 103 21
20. 6. 2024 02:00 100 18
20. 6. 2024 01:00 101 19

H - water level, Q - discharge
more information


Morava

Strážnice

Date and time (UTC) H (cm) Q (m³/s)
20. 6. 2024 13:00 138 29.7
20. 6. 2024 12:00 136 29
20. 6. 2024 11:00 134 28
20. 6. 2024 10:00 135 28
20. 6. 2024 09:00 134 28
20. 6. 2024 08:00 135 28
20. 6. 2024 07:00 135 28
20. 6. 2024 06:00 135 28
20. 6. 2024 05:00 138 30
20. 6. 2024 04:00 138 30
20. 6. 2024 03:00 138 30
20. 6. 2024 02:00 137 29
20. 6. 2024 01:00 135 28

H - water level, Q - discharge
more information

Kroměříž

Date and time (UTC) H (cm) Q (m³/s)
20. 6. 2024 13:00 150 30.4
20. 6. 2024 12:00 151 31
20. 6. 2024 11:00 152 32
20. 6. 2024 10:00 153 32
20. 6. 2024 09:00 153 32
20. 6. 2024 08:00 155 34
20. 6. 2024 07:00 155 34
20. 6. 2024 06:00 155 34
20. 6. 2024 05:00 154 33
20. 6. 2024 04:00 153 32
20. 6. 2024 03:00 153 32
20. 6. 2024 02:00 152 32
20. 6. 2024 01:00 151 31

H - water level, Q - discharge
more information
Source data
Labe Basin Vltava Basin Povodí Moravy ČHMÚ
Po vodě ekologicky, levně a v pohodě
backgroung on backgroung off